TimeEDT,TemperatureF,Dew PointF,Humidity,Sea Level PressureIn,VisibilityMPH,Wind Direction,Wind SpeedMPH,Gust SpeedMPH,PrecipitationIn,Events,Conditions,WindDirDegrees,DateUTC
12:04 AM,46.4,42.8,87,28.80,8.0,SW,23.0,38.0,0.04,Rain,Rain,220,2012-10-30 04:04:00
12:52 AM,46.0,42.1,86,28.85,8.0,SSW,18.4,35.7,0.20,Rain,Rain,210,2012-10-30 04:52:00
1:52 AM,45.0,39.9,82,28.90,8.0,SSW,19.6,33.4,0.16,Rain,Rain,210,2012-10-30 05:52:00
2:52 AM,44.1,39.9,85,28.95,9.0,SSW,21.9,34.5,0.11,Rain,Rain,200,2012-10-30 06:52:00
3:29 AM,44.6,39.2,81,28.96,10.0,SSW,20.7,29.9,0.06,Rain,Light Rain,200,2012-10-30 07:29:00
3:52 AM,44.1,39.0,82,28.98,10.0,SSW,19.6,32.2,0.06,Rain,Light Rain,200,2012-10-30 07:52:00
4:44 AM,44.6,39.2,81,29.01,10.0,SSW,15.0,31.1,0.01,Rain,Light Rain,200,2012-10-30 08:44:00
4:52 AM,44.1,39.0,82,29.02,10.0,SSW,13.8,25.3,0.01,Rain,Light Rain,200,2012-10-30 08:52:00
5:52 AM,43.0,39.0,86,29.07,10.0,SSW,17.3,25.3,0.02,Rain,Light Rain,200,2012-10-30 09:52:00
6:09 AM,42.8,39.2,87,29.07,10.0,SSW,19.6,25.3,0.01,Rain,Light Rain,210,2012-10-30 10:09:00
6:41 AM,42.8,39.2,87,29.10,10.0,South,11.5,20.7,0.03,Rain,Light Rain,190,2012-10-30 10:41:00
6:52 AM,43.0,39.0,86,29.11,10.0,SSW,13.8,21.9,0.04,Rain,Light Rain,200,2012-10-30 10:52:00
7:52 AM,42.1,37.9,85,29.16,10.0,South,16.1,25.3,0.06,Rain,Light Rain,190,2012-10-30 11:52:00
8:28 AM,41.0,37.4,87,29.18,10.0,SSW,11.5,21.9,0.02,Rain,Light Rain,200,2012-10-30 12:28:00
8:39 AM,41.0,37.4,87,29.19,10.0,SSW,15.0,20.7,0.02,Rain,Light Rain,200,2012-10-30 12:39:00
8:52 AM,41.0,37.0,86,29.21,10.0,SSW,10.4,-,0.03,Rain,Light Rain,200,2012-10-30 12:52:00
9:16 AM,39.2,35.6,87,29.22,9.0,SSW,13.8,25.3,0.03,Rain,Light Rain,200,2012-10-30 13:16:00
9:32 AM,41.0,37.4,87,29.23,10.0,SSW,16.1,21.9,0.03,Rain,Light Rain,200,2012-10-30 13:32:00
9:52 AM,41.0,37.0,86,29.25,10.0,South,13.8,-,0.04,Rain,Light Rain,190,2012-10-30 13:52:00
10:34 AM,42.8,37.4,81,29.27,10.0,SSW,13.8,24.2,0.00,Rain,Light Rain,200,2012-10-30 14:34:00
10:52 AM,42.1,37.0,82,29.28,10.0,SSW,13.8,21.9,0.00,Rain,Light Rain,200,2012-10-30 14:52:00
11:10 AM,42.8,37.4,81,29.29,10.0,SSW,10.4,19.6,0.00,,Overcast,200,2012-10-30 15:10:00
11:52 AM,42.1,37.9,85,29.31,10.0,South,8.1,-,0.00,,Overcast,180,2012-10-30 15:52:00
12:52 PM,42.1,36.0,79,29.33,10.0,South,9.2,18.4,0.00,Rain,Light Rain,190,2012-10-30 16:52:00
1:52 PM,43.0,37.0,80,29.34,10.0,South,9.2,21.9,0.02,Rain,Light Rain,190,2012-10-30 17:52:00
2:52 PM,43.0,37.9,82,29.36,10.0,SSW,12.7,19.6,0.01,,Overcast,200,2012-10-30 18:52:00
3:52 PM,43.0,37.9,82,29.38,10.0,South,6.9,-,0.01,,Overcast,190,2012-10-30 19:52:00
4:52 PM,44.1,37.9,79,29.39,10.0,SSW,5.8,-,0.00,,Overcast,200,2012-10-30 20:52:00
5:19 PM,44.6,37.4,76,29.40,10.0,SSW,6.9,-,N/A,,Overcast,200,2012-10-30 21:19:00
5:52 PM,44.1,37.9,79,29.42,10.0,SSW,6.9,-,0.00,Rain,Light Rain,200,2012-10-30 21:52:00
6:52 PM,44.1,39.0,82,29.44,10.0,Calm,Calm,-,0.01,Rain,Light Rain,0,2012-10-30 22:52:00
7:52 PM,44.1,39.9,85,29.46,10.0,SSE,5.8,-,0.00,,Overcast,160,2012-10-30 23:52:00
8:52 PM,45.0,37.9,76,29.48,10.0,South,5.8,-,N/A,,Overcast,190,2012-10-31 00:52:00
9:52 PM,45.0,37.9,76,29.49,10.0,SSW,8.1,-,0.00,,Overcast,210,2012-10-31 01:52:00
10:52 PM,45.0,37.0,74,29.49,10.0,SSW,3.5,-,N/A,,Overcast,210,2012-10-31 02:52:00
11:52 PM,45.0,37.0,74,29.49,10.0,SSW,4.6,-,N/A,,Overcast,210,2012-10-31 03:52:00